Tracking 29606 objects as of 18-Sep-2024
HD Live streaming from Space Station
objects crossing your sky now

FENGYUN 1C DEB

Track FENGYUN 1C DEB now!
10-day predictions


NORAD ID: 32241
Int'l Code: 1999-025CWP
Perigee: 708.7 km
Apogee: 939.3 km
Inclination: 99.1 °
Period: 101.2 minutes
Semi major axis: 7195 km
RCS: 0.0127 m2 (small)
Launch date: May 10, 1999
Source: People's Republic of China (PRC)
Launch site: Taiyaun Space Center, China (TSC)

Note: This is SATELLITE DEBRIS
Your satellite tracking list
Your tracking list is empty




NASA's NSSDC Master Catalog

Two Line Element Set (TLE):
1 32241U 99025CWP 24259.75785484  .00013255  00000-0  52178-2 0  9998
2 32241  99.1039 265.8241 0160298  87.7278 274.2242 14.22510683873663
Source of the keplerian elements: AFSPC